EA3IR Weather Reports


Display with metric or nautical units.
time (UTC)temp
F
wind
direction
speed
MPH
gust
MPH
rain 1hr
in
rain 24hr
in
rain mn
in
humidity
%
barometer
mb
20260505005119 57 262 1.0 1.0 0.00 0.11 0.04 89 1010.8
20260505004119 57 254 2.0 4.0 0.00 0.11 0.04 89 1010.9
20260505003618 57 276 2.0 3.0 0.00 0.11 0.04 89 1010.9
20260505003120 57 275 2.0 4.0 0.00 0.11 0.04 89 1010.9
20260505002618 57 315 1.0 3.0 0.00 0.11 0.04 90 1010.9
20260505002118 57 316 1.0 3.0 0.00 0.11 0.04 90 1011.0
20260505001619 57 278 1.0 3.0 0.00 0.11 0.04 90 1011.0
20260505001118 57 279 2.0 3.0 0.00 0.11 0.04 90 1011.0
20260505000119 57 316 2.0 5.0 0.00 0.11 0.04 90 1011.0
20260504235619 57 312 2.0 5.0 0.00 0.11 0.04 90 1011.0
20260504234120 57 348 2.0 4.0 0.00 0.11 0.04 90 1010.9
20260504233618 57 326 1.0 5.0 0.00 0.11 0.04 90 1010.9
20260504233118 57 316 1.0 2.0 0.00 0.11 0.04 90 1010.8
20260504232618 57 316 1.0 3.0 0.00 0.11 0.04 90 1010.6
20260504231119 57 316 3.0 5.0 0.02 0.11 0.04 90 1010.6
20260504230619 57 319 3.0 5.0 0.03 0.11 0.04 90 1010.5
20260504225618 57 296 2.0 5.0 0.05 0.11 0.04 89 1010.5
20260504225119 57 302 2.0 5.0 0.05 0.11 0.04 89 1010.4
20260504224618 57 308 2.0 5.0 0.05 0.11 0.04 89 1010.3
20260504224118 57 306 2.0 4.0 0.06 0.11 0.04 89 1010.3
20260504223619 57 318 2.0 3.0 0.06 0.11 0.04 89 1010.3
20260504223119 58 9 2.0 3.0 0.06 0.11 0.04 88 1010.4
20260504222618 58 5 2.0 3.0 0.05 0.10 0.03 88 1010.3
20260504222119 58 345 3.0 6.0 0.05 0.10 0.03 87 1010.4
20260504220619 60 286 3.0 10.0 0.02 0.08 0.01 88 1010.9
20260504220122 60 305 2.0 6.0 0.02 0.07 0.00 89 1011.0
20260504215618 61 283 1.0 3.0 0.01 0.06 0.06 89 1010.9
20260504214619 62 301 1.0 3.0 0.01 0.06 0.06 90 1010.9
20260504214118 62 6 1.0 3.0 0.00 0.06 0.06 90 1010.9
20260504213618 62 11 1.0 3.0 0.00 0.06 0.06 90 1010.8
20260504213119 62 264 1.0 3.0 0.00 0.06 0.06 90 1010.8
20260504212619 62 263 1.0 3.0 0.00 0.06 0.06 90 1010.9
20260504212118 62 264 1.0 3.0 0.00 0.06 0.06 90 1011.1
20260504211619 62 264 1.0 4.0 0.00 0.06 0.06 90 1011.1
20260504210120 62 263 0.0 2.0 0.00 0.06 0.06 90 1010.9
20260504205619 62 264 0.0 1.0 0.00 0.06 0.06 90 1010.9
20260504205119 62 264 1.0 1.0 0.00 0.06 0.06 90 1010.8
20260504204119 62 264 0.0 2.0 0.00 0.06 0.06 90 1010.8
20260504203618 62 264 0.0 2.0 0.00 0.06 0.06 90 1010.7
20260504203118 62 264 0.0 1.0 0.00 0.06 0.06 90 1010.7
20260504202119 62 0 0.0 0.0 0.00 0.06 0.06 90 1010.5
20260504201618 62 264 1.0 3.0 0.00 0.06 0.06 90 1010.5
20260504201120 63 264 0.0 1.0 0.00 0.06 0.06 90 1010.5
20260504200619 63 264 0.0 1.0 0.00 0.06 0.06 90 1010.5
20260504200119 63 263 1.0 1.0 0.00 0.06 0.06 90 1010.5
20260504195618 62 264 1.0 2.0 0.00 0.06 0.06 90 1010.4
20260504195119 62 263 1.0 2.0 0.00 0.06 0.06 90 1010.4
20260504194618 62 263 1.0 2.0 0.00 0.06 0.06 89 1010.3
20260504193618 63 264 0.0 1.0 0.00 0.06 0.06 89 1010.1
20260504193119 63 264 0.0 1.0 0.00 0.06 0.06 90 1010.0
20260504192119 63 201 0.0 1.0 0.00 0.06 0.06 89 1009.8
20260504191619 63 201 0.0 1.0 0.00 0.06 0.06 89 1009.6
20260504191118 63 202 1.0 2.0 0.00 0.06 0.06 89 1009.4
20260504190618 63 202 1.0 3.0 0.00 0.06 0.06 89 1009.4
20260504185618 63 190 2.0 3.0 0.00 0.06 0.06 89 1009.3
20260504185118 63 162 1.0 3.0 0.00 0.06 0.06 89 1009.2
20260504184619 63 165 1.0 4.0 0.00 0.06 0.06 89 1009.2
20260504183618 64 188 1.0 3.0 0.00 0.06 0.06 89 1009.1
20260504183118 64 149 1.0 3.0 0.00 0.06 0.06 89 1009.1
20260504182618 64 198 1.0 3.0 0.00 0.06 0.06 89 1009.2
20260504182118 64 223 2.0 4.0 0.00 0.06 0.06 89 1009.2
20260504181619 64 183 2.0 4.0 0.00 0.06 0.06 89 1009.3
20260504181118 64 163 2.0 4.0 0.00 0.06 0.06 89 1009.2
20260504180618 64 168 2.0 6.0 0.00 0.06 0.06 89 1009.2
20260504180118 64 184 1.0 5.0 0.00 0.06 0.06 89 1009.3
20260504175618 64 192 1.0 3.0 0.00 0.06 0.06 89 1009.2
20260504175118 64 191 1.0 3.0 0.00 0.06 0.06 89 1009.2
20260504174618 65 191 0.0 1.0 0.00 0.06 0.06 89 1009.3
20260504174119 65 192 0.0 4.0 0.00 0.06 0.06 89 1009.2
20260504173618 65 303 1.0 2.0 0.01 0.06 0.06 89 1009.3
20260504173119 65 275 1.0 4.0 0.01 0.06 0.06 89 1009.3
20260504172618 65 289 1.0 2.0 0.01 0.06 0.06 89 1009.3
20260504172119 65 67 1.0 2.0 0.01 0.06 0.06 89 1009.3
20260504171118 65 159 1.0 4.0 0.02 0.06 0.06 89 1009.3
20260504170618 65 165 1.0 3.0 0.04 0.06 0.06 89 1009.4
20260504170119 65 157 1.0 3.0 0.06 0.06 0.06 89 1009.5
20260504160120 66 179 2.0 4.0 0.00 0.00 0.00 79 1009.9
20260504151119 68 100 2.0 4.0 0.00 0.00 0.00 74 1009.7
20260504150618 68 147 3.0 8.0 0.00 0.00 0.00 74 1009.8
20260504141119 71 173 3.0 8.0 0.00 0.00 0.00 69 1009.5
20260504130618 71 66 2.0 5.0 0.00 0.00 0.00 70 1009.9
20260504130119 71 109 2.0 7.0 0.00 0.00 0.00 69 1010.0
20260504120119 71 46 3.0 4.0 0.00 0.00 0.00 71 1010.7
20260504110119 73 67 5.0 8.0 0.00 0.00 0.00 65 1011.2
20260504100119 73 67 3.0 9.0 0.00 0.00 0.00 66 1011.2
20260504081518 72 133 3.0 9.0 0.00 0.00 0.00 63 1010.8
20260504050518 58 161 1.0 2.0 0.00 0.00 0.00 87 1011.4
20260504050018 58 161 0.0 2.0 0.00 0.00 0.00 87 1011.4
20260504045518 58 162 1.0 1.0 0.00 0.00 0.00 87 1011.3
20260504045019 58 161 1.0 2.0 0.00 0.00 0.00 87 1011.4
20260504044518 58 161 1.0 2.0 0.00 0.00 0.00 87 1011.4
20260504044017 58 161 1.0 2.0 0.00 0.00 0.00 87 1011.4
20260504043518 58 161 1.0 5.0 0.00 0.00 0.00 87 1011.6
20260504043017 58 161 1.0 2.0 0.00 0.00 0.00 87 1011.5
20260504042518 58 161 1.0 2.0 0.00 0.00 0.00 87 1011.5
20260504042017 58 161 1.0 3.0 0.00 0.00 0.00 87 1011.7
20260504041518 59 162 1.0 1.0 0.00 0.00 0.00 87 1011.7
20260504041018 59 162 1.0 2.0 0.00 0.00 0.00 86 1011.8
20260504040518 59 162 1.0 3.0 0.00 0.00 0.00 87 1011.8
20260504040017 59 170 1.0 5.0 0.00 0.00 0.00 86 1011.8
20260504035519 59 198 1.0 2.0 0.00 0.00 0.00 86 1011.8
20260504035018 59 246 2.0 4.0 0.00 0.00 0.00 86 1011.9
20260504034018 59 220 1.0 4.0 0.00 0.00 0.00 86 1012.0
20260504033518 59 250 1.0 4.0 0.00 0.00 0.00 86 1012.0
20260504033018 59 232 1.0 4.0 0.00 0.00 0.00 86 1012.0
20260504032518 59 188 1.0 2.0 0.00 0.00 0.00 86 1012.1
20260504031518 59 238 2.0 4.0 0.00 0.00 0.00 86 1012.2
20260504031018 59 226 2.0 4.0 0.00 0.00 0.00 86 1012.3
20260504030518 59 231 2.0 4.0 0.00 0.00 0.00 86 1012.3
20260504030019 59 235 1.0 3.0 0.00 0.00 0.00 86 1012.2
20260504025518 59 252 1.0 2.0 0.00 0.00 0.00 86 1012.2
20260504025018 59 263 1.0 3.0 0.00 0.00 0.00 86 1012.2
20260504024518 59 263 1.0 3.0 0.00 0.00 0.00 86 1012.2
20260504023517 59 215 1.0 2.0 0.00 0.00 0.00 87 1012.3
20260504023018 59 217 0.0 1.0 0.00 0.00 0.00 87 1012.2
20260504022517 59 0 0.0 0.0 0.00 0.00 0.00 87 1012.3
20260504022017 59 217 0.0 1.0 0.00 0.00 0.00 86 1012.3
20260504021018 58 217 0.0 1.0 0.00 0.00 0.00 86 1012.4
20260504020517 58 217 0.0 1.0 0.00 0.00 0.00 86 1012.4
20260504020018 58 217 0.0 1.0 0.00 0.00 0.00 85 1012.4
20260504014517 58 217 1.0 2.0 0.00 0.00 0.00 84 1012.6
20260504014017 59 216 0.0 1.0 0.00 0.00 0.00 84 1012.6
20260504013518 59 217 0.0 2.0 0.00 0.00 0.00 83 1012.6
20260504012517 60 216 0.0 2.0 0.00 0.00 0.00 83 1012.6
20260504012018 60 217 0.0 2.0 0.00 0.00 0.00 83 1012.6
20260504010518 60 228 1.0 3.0 0.00 0.00 0.00 83 1012.8
20260504010019 61 170 0.0 3.0 0.00 0.00 0.00 83 1012.7